Mount Pleasant, MI

9:38 AM EDT on May 23, 2017 (GMT -0400)
Mount Pleasant Municipal

Weather History for KMOP - December, 2012

Change the Weather History Date:

Monday, December 31, 2012

  Actual Average (KAMN) Record (KAMN)
Temperature  
Mean Temperature 28 °F -  
Max Temperature 34 °F 30 °F 60 °F (1965)
Min Temperature 22 °F 14 °F -8 °F (1976)
Degree Days  
Heating Degree Days 36    
Moisture  
Dew Point 22 °F    
Average Humidity 75    
Maximum Humidity 86    
Minimum Humidity 59    
Precipitation  
Precipitation 0.00 in - - ()
Sea Level Pressure  
Sea Level Pressure 29.94 in    
Wind  
Wind Speed 9 mph (WSW)    
Max Wind Speed 13 mph    
Max Gust Speed 20 mph    
Visibility 10 miles    
Events      
Averages and records for this station are not official NWS values.
T = Trace of Precipitation, MM = Missing Value Source: NWS Daily Summary

Daily Weather History Graph

Daily Weather History Graph

Search for Another Location

Airport or City:

Trip Planner

Search our weather history database for the weather conditions in past years. The results will help you decide how hot, cold, wet, or windy it might be!

Date:

Astronomy

Dec. 31, 2012 Rise Set
Actual Time 8:12 AM EST 5:12 PM EST
Civil Twilight 7:39 AM EST 5:44 PM EST
Nautical Twilight 7:03 AM EST 6:21 PM EST
Astronomical Twilight 6:28 AM EST 6:55 PM EST
Moon 8:49 PM EST (12/31) 9:47 AM EST (12/31)
Length of Visible Light 10h 05m
Length of Day
8h 59m
Waning Gibbous, 90% of the Moon is Illuminated
Dec 31
Waning Gibbous
Jan 4
Last Quarter
Jan 11
New
Jan 18
First Quarter
Jan 26
Full

Hourly Weather History & Observations

Time (EST) Temp. Windchill Dew Point Humidity Pressure Visibility Wind Dir Wind Speed Gust Speed Precip Events Conditions
12:15 AM 25.7 °F 15.7 °F 22.1 °F 86% 30.06 in 7.0 mi SSW 10.4 mph - N/A   Overcast
12:35 AM 26.2 °F 17.8 °F 22.5 °F 86% 30.05 in 7.0 mi SSW 8.1 mph - N/A   Mostly Cloudy
1:15 AM 26.4 °F 18.0 °F 22.3 °F 84% 30.03 in 7.0 mi SSW 8.1 mph - N/A   Scattered Clouds
1:35 AM 27.3 °F 18.4 °F 23.5 °F 86% 30.02 in 7.0 mi SSW 9.2 mph - N/A   Mostly Cloudy
1:55 AM 27.5 °F 17.4 °F 23.2 °F 84% 30.01 in 7.0 mi SW 11.5 mph - N/A   Mostly Cloudy
2:15 AM 27.5 °F 17.4 °F 23.0 °F 83% 30.01 in 7.0 mi SSW 11.5 mph 16.1 mph N/A   Mostly Cloudy
2:55 AM 26.6 °F 18.2 °F 21.4 °F 81% 29.99 in 7.0 mi SSW 8.1 mph - N/A   Scattered Clouds
3:15 AM 25.9 °F 18.2 °F 20.8 °F 81% 29.98 in 7.0 mi South 6.9 mph - N/A   Clear
3:35 AM 25.5 °F 16.9 °F 20.3 °F 81% 29.97 in 10.0 mi South 8.1 mph - N/A   Clear
3:55 AM 25.5 °F 15.5 °F 20.1 °F 80% 29.97 in 10.0 mi South 10.4 mph - N/A   Clear
4:15 AM 25.3 °F 16.0 °F 19.9 °F 80% 29.96 in 10.0 mi South 9.2 mph - N/A   Clear
4:34 AM 24.8 °F 16.9 °F 19.4 °F 80% 29.95 in 10.0 mi South 6.9 mph - N/A   Clear
4:55 AM 24.6 °F 15.1 °F 19.4 °F 81% 29.94 in 10.0 mi SSW 9.2 mph - N/A   Clear
5:15 AM 24.6 °F 15.1 °F 19.2 °F 80% 29.92 in 10.0 mi SSW 9.2 mph - N/A   Clear
5:34 AM 24.8 °F 16.1 °F 19.2 °F 79% 29.92 in 10.0 mi South 8.1 mph - N/A   Clear
5:55 AM 25.2 °F 15.1 °F 19.4 °F 79% 29.93 in 10.0 mi SSW 10.4 mph 16.1 mph N/A   Clear
6:15 AM 25.3 °F 16.0 °F 19.8 °F 79% 29.92 in 10.0 mi SSW 9.2 mph - N/A   Scattered Clouds
6:34 AM 26.4 °F 16.0 °F 20.8 °F 79% 29.91 in 10.0 mi South 11.5 mph - N/A   Mostly Cloudy
6:55 AM 27.7 °F 17.6 °F 21.7 °F 78% 29.91 in 10.0 mi SSW 11.5 mph 17.3 mph N/A   Overcast
7:15 AM 27.9 °F 17.8 °F 22.1 °F 79% 29.90 in 10.0 mi SSW 11.5 mph - N/A   Overcast
7:34 AM 27.9 °F 19.8 °F 22.1 °F 79% 29.89 in 10.0 mi South 8.1 mph - N/A   Overcast
7:55 AM 28.2 °F 21.0 °F 22.6 °F 80% 29.89 in 10.0 mi South 6.9 mph - N/A   Overcast
8:15 AM 28.8 °F 21.7 °F 23.4 °F 80% 29.89 in 10.0 mi SSW 6.9 mph - N/A   Overcast
8:35 AM 29.3 °F 24.3 °F 23.9 °F 80% 29.89 in 10.0 mi SSW 4.6 mph - N/A   Overcast
8:55 AM 30.0 °F 24.1 °F 24.8 °F 81% 29.89 in 10.0 mi SSW 5.8 mph - N/A   Overcast
9:15 AM 30.2 °F 25.4 °F 25.3 °F 82% 29.88 in 10.0 mi SSW 4.6 mph - N/A   Overcast
9:35 AM 30.9 °F 27.5 °F 25.7 °F 81% 29.87 in 10.0 mi South 3.5 mph - N/A   Overcast
9:55 AM 31.6 °F 28.3 °F 26.4 °F 81% 29.88 in 10.0 mi South 3.5 mph - N/A   Overcast
10:15 AM 32.0 °F 27.5 °F 26.8 °F 81% 29.88 in 10.0 mi South 4.6 mph - N/A   Overcast
10:35 AM 32.7 °F 28.3 °F 27.3 °F 81% 29.89 in 10.0 mi SW 4.6 mph - N/A   Overcast
10:55 AM 34.2 °F 25.2 °F 27.1 °F 75% 29.90 in 10.0 mi WSW 12.7 mph 16.1 mph N/A   Overcast
11:15 AM 34.7 °F 26.4 °F 26.6 °F 72% 29.90 in 10.0 mi West 11.5 mph 16.1 mph N/A   Overcast
11:35 AM 34.7 °F 26.9 °F 26.6 °F 72% 29.89 in 10.0 mi West 10.4 mph - N/A   Overcast
11:55 AM 34.7 °F 28.8 °F 26.2 °F 71% 29.89 in 10.0 mi West 6.9 mph 17.3 mph N/A   Overcast
12:15 PM 34.7 °F 25.9 °F 25.7 °F 70% 29.89 in 10.0 mi West 12.7 mph 19.6 mph N/A   Overcast
12:35 PM 34.3 °F 25.5 °F 25.5 °F 70% 29.87 in 10.0 mi West 12.7 mph 18.4 mph N/A   Overcast
12:55 PM 34.2 °F 26.8 °F 25.5 °F 71% 29.87 in 10.0 mi West 9.2 mph - N/A   Overcast
1:15 PM 33.4 °F 24.3 °F 25.9 °F 74% 29.87 in 10.0 mi West 12.7 mph 17.3 mph N/A   Overcast
1:35 PM 33.3 °F 25.7 °F 25.5 °F 73% 29.86 in 10.0 mi West 9.2 mph - N/A   Overcast
1:55 PM 32.9 °F 25.3 °F 24.8 °F 72% 29.86 in 10.0 mi West 9.2 mph 18.4 mph N/A   Overcast
2:15 PM 32.4 °F 25.3 °F 24.6 °F 73% 29.87 in 10.0 mi West 8.1 mph - N/A   Overcast
2:35 PM 32.0 °F 23.6 °F 24.4 °F 74% 29.88 in 10.0 mi West 10.4 mph 17.3 mph N/A   Overcast
2:55 PM 32.0 °F 23.0 °F 24.4 °F 74% 29.89 in 10.0 mi West 11.5 mph 17.3 mph N/A   Overcast
3:15 PM 31.3 °F 23.9 °F 24.1 °F 75% 29.89 in 10.0 mi WNW 8.1 mph - N/A   Overcast
3:35 PM 30.7 °F 24.1 °F 23.9 °F 76% 29.91 in 7.0 mi West 6.9 mph - N/A   Overcast
3:55 PM 30.6 °F 22.4 °F 23.7 °F 76% 29.91 in 7.0 mi West 9.2 mph - N/A   Overcast
4:15 PM 30.2 °F 22.6 °F 23.7 °F 77% 29.91 in 7.0 mi West 8.1 mph - N/A   Overcast
4:35 PM 30.2 °F 24.3 °F 23.7 °F 77% 29.92 in 7.0 mi West 5.8 mph - N/A   Overcast
4:55 PM 30.2 °F 21.3 °F 23.0 °F 75% 29.92 in 10.0 mi West 10.4 mph - N/A   Overcast
5:15 PM 30.2 °F 22.6 °F 22.8 °F 74% 29.93 in 10.0 mi West 8.1 mph - N/A   Overcast
5:35 PM 30.0 °F 22.4 °F 22.6 °F 74% 29.94 in 10.0 mi WNW 8.1 mph - N/A   Overcast
5:55 PM 29.7 °F 22.8 °F 21.6 °F 72% 29.95 in 10.0 mi WNW 6.9 mph - N/A   Overcast
6:15 PM 29.3 °F 20.8 °F 20.3 °F 69% 29.95 in 10.0 mi WNW 9.2 mph - N/A   Overcast
6:35 PM 28.9 °F 22.8 °F 19.6 °F 68% 29.96 in 10.0 mi NW 5.8 mph - N/A   Overcast
6:55 PM 28.4 °F 20.4 °F 18.5 °F 66% 29.96 in 10.0 mi WNW 8.1 mph - N/A   Overcast
6:59 PM 28.4 °F 20.4 °F 18.3 °F 66% 29.96 in 10.0 mi WNW 8.1 mph - N/A   Overcast
7:35 PM 28.0 °F 20.0 °F 17.6 °F 65% 29.98 in 10.0 mi West 8.1 mph - N/A   Overcast
7:55 PM 27.3 °F 19.9 °F 17.4 °F 66% 29.98 in 10.0 mi West 6.9 mph - N/A   Overcast
8:15 PM 27.3 °F 19.9 °F 18.1 °F 68% 29.98 in 10.0 mi West 6.9 mph - N/A   Overcast
8:34 PM 27.3 °F 19.9 °F 18.1 °F 68% 29.98 in 10.0 mi West 6.9 mph - N/A   Overcast
8:55 PM 27.1 °F 19.7 °F 18.5 °F 70% 29.98 in 10.0 mi WNW 6.9 mph - N/A   Overcast
9:15 PM 27.0 °F 18.7 °F 18.1 °F 69% 29.99 in 10.0 mi NW 8.1 mph - N/A   Overcast
9:34 PM 25.7 °F 15.7 °F 17.4 °F 71% 30.00 in 10.0 mi NNW 10.4 mph - N/A   Overcast
9:55 PM 25.3 °F 16.0 °F 15.3 °F 66% 30.00 in 10.0 mi NW 9.2 mph - N/A   Overcast
10:15 PM 25.2 °F 16.5 °F 13.6 °F 62% 30.01 in 10.0 mi NW 8.1 mph - N/A   Overcast
10:34 PM 24.3 °F 16.3 °F 11.8 °F 59% 30.01 in 10.0 mi NW 6.9 mph - N/A   Mostly Cloudy
11:15 PM 23.2 °F 17.2 °F 12.0 °F 62% 30.02 in 10.0 mi NW 4.6 mph - N/A   Overcast
11:34 PM 22.8 °F 18.2 °F 12.2 °F 64% 30.02 in 10.0 mi WNW 3.5 mph - N/A   Overcast